Location: Saratoga Springs
(43.0831°N, 73.7850°W)
Time: 23:28:03
(UTC-04:00)

Transit 2A Rocket - Pass Details

Date: 26 April 2024
Orbit: 584 x 909 km, 66.7° (Epoch: 24 May)

Event Time Altitude Azimuth Distance (km) Brightness Sun altitude
Rises 20:14:23 0° 324° (NW) 3,351 9.5 -4.7°
Reaches altitude 10° 20:16:48 10° 321° (NW) 2,458 8.8 -5.1°
Maximum altitude 20:22:23 55° 244° (WSW) 1,043 6.0 -6.1°
Drops below altitude 10° 20:28:15 10° 169° (SSE) 2,573 7.4 -7.0°
Sets 20:30:50 0° 165° (SSE) 3,520 8.0 -7.4°
